El Paso, TX

4:01 PM MST on February 22, 2017 (GMT -0700)
El Paso International

Weather History for KELP - November, 2013

Change the Weather History Date:

Monday, November 18, 2013

  Actual Average Record
Temperature  
Mean Temperature 61 °F 52 °F  
Max Temperature 72 °F 65 °F 81 °F (1981)
Min Temperature 49 °F 39 °F 11 °F (1880)
Degree Days  
Heating Degree Days 4 13  
Month to date heating degree days 114 173  
Since 1 July heating degree days 172 256  
Cooling Degree Days 0 0  
Month to date cooling degree days 1 0  
Year to date cooling degree days 2695 2328  
Growing Degree Days 10 (Base 50)    
Moisture  
Dew Point 36 °F    
Average Humidity 43    
Maximum Humidity 59    
Minimum Humidity 27    
Precipitation  
Precipitation 0.00 in 0.02 in 0.93 in (1906)
Month to date precipitation T 0.29  
Year to date precipitation 9.15 8.73  
Snow  
Snow 0.00 in - - ()
Month to date snowfall 0.0  
Since 1 July snowfall T  
Since 1 September snowfall 0.0  
Snow Depth 0.00 in    
Sea Level Pressure  
Sea Level Pressure 30.01 in    
Wind  
Wind Speed 3 mph (ENE)    
Max Wind Speed 10 mph    
Max Gust Speed 13 mph    
Visibility 10 miles    
Events      
T = Trace of Precipitation, MM = Missing Value Source: NWS Daily Summary

Daily Weather History Graph

Daily Weather History Graph

Search for Another Location

Airport or City:

Trip Planner

Search our weather history database for the weather conditions in past years. The results will help you decide how hot, cold, wet, or windy it might be!

Date:

Astronomy

Nov. 18, 2013 Rise Set
Actual Time 6:36 AM MST 5:04 PM MST
Civil Twilight 6:10 AM MST 5:30 PM MST
Nautical Twilight 5:41 AM MST 6:00 PM MST
Astronomical Twilight 5:12 AM MST 6:29 PM MST
Moon 6:09 PM MST (11/18) 7:27 AM MST (11/18)
Length of Visible Light 11h 19m
Length of Day
10h 27m
Full, 99% of the Moon is Illuminated
Nov 18
Full
Nov 25
Last Quarter
Dec 2
New
Dec 9
First Quarter
Dec 17
Full

Hourly Weather History & Observations

Time (MST) Temp. Dew Point Humidity Pressure Visibility Wind Dir Wind Speed Gust Speed Precip Events Conditions
12:51 AM 55.9 °F 36.0 °F 47% 29.99 in 10.0 mi South 8.1 mph - N/A   Overcast
1:51 AM 53.1 °F 36.0 °F 52% 29.99 in 10.0 mi SE 3.5 mph - N/A   Overcast
2:51 AM 54.0 °F 36.0 °F 51% 29.98 in 10.0 mi South 5.8 mph - N/A   Overcast
3:51 AM 52.0 °F 36.0 °F 54% 29.99 in 10.0 mi SE 3.5 mph - N/A   Overcast
4:51 AM 52.0 °F 36.0 °F 54% 30.01 in 10.0 mi South 3.5 mph - N/A   Overcast
5:51 AM 52.0 °F 37.0 °F 57% 30.02 in 10.0 mi NE 5.8 mph - N/A   Overcast
6:51 AM 50.0 °F 36.0 °F 59% 30.05 in 10.0 mi East 4.6 mph - N/A   Mostly Cloudy
7:51 AM 52.0 °F 37.0 °F 57% 30.09 in 10.0 mi Calm Calm - N/A   Mostly Cloudy
8:51 AM 54.0 °F 37.0 °F 53% 30.09 in 10.0 mi NNW 4.6 mph - N/A   Mostly Cloudy
9:51 AM 62.1 °F 36.0 °F 38% 30.08 in 10.0 mi NNE 6.9 mph - N/A   Mostly Cloudy
10:51 AM 63.0 °F 34.0 °F 34% 30.08 in 10.0 mi NNW 6.9 mph - N/A   Mostly Cloudy
11:51 AM 64.9 °F 34.0 °F 32% 30.04 in 10.0 mi Calm Calm - N/A   Mostly Cloudy
12:51 PM 66.9 °F 35.1 °F 31% 30.01 in 10.0 mi Calm Calm - N/A   Scattered Clouds
1:51 PM 69.1 °F 35.1 °F 29% 29.99 in 10.0 mi NNE 3.5 mph - N/A   Scattered Clouds
2:51 PM 71.1 °F 35.1 °F 27% 29.96 in 10.0 mi Calm Calm - N/A   Scattered Clouds
3:51 PM 72.0 °F 36.0 °F 27% 29.95 in 10.0 mi NNE 3.5 mph - N/A   Scattered Clouds
4:51 PM 68.0 °F 37.0 °F 32% 29.96 in 10.0 mi NE 4.6 mph - N/A   Scattered Clouds
5:51 PM 66.0 °F 37.0 °F 34% 29.97 in 10.0 mi Calm Calm - N/A   Partly Cloudy
6:51 PM 63.0 °F 37.0 °F 38% 29.99 in 10.0 mi NNW 4.6 mph - N/A   Partly Cloudy
7:51 PM 60.1 °F 36.0 °F 41% 30.00 in 10.0 mi Calm Calm - N/A   Partly Cloudy
8:51 PM 55.0 °F 35.1 °F 47% 30.01 in 10.0 mi NE 5.8 mph - N/A   Partly Cloudy
9:51 PM 53.1 °F 35.1 °F 50% 30.00 in 10.0 mi East 6.9 mph - N/A   Partly Cloudy
10:51 PM 55.9 °F 36.0 °F 47% 29.99 in 10.0 mi Calm Calm - N/A   Scattered Clouds
11:51 PM 54.0 °F 36.0 °F 51% 29.98 in 10.0 mi Calm Calm - N/A   Scattered Clouds